This is the latest recevied weather packets stored in our database for station/object KJ5JYX. If no packets are shown the sender has not sent any weather packets the latest 10 day(s).
| Time | Temp. | Humidity | Pressure | Rain* | Wind** | Luminosity | Snow |
|---|---|---|---|---|---|---|---|
| 1777847987 | 25° C | 41% | 1018.1 hPa | 0 mm | - | 96 W/m² | - |
| 1777847685 | 25.56° C | 39% | 1018.2 hPa | 0 mm | - | 81 W/m² | - |
| 1777847380 | 25.56° C | 43% | 1018.3 hPa | 0 mm | - | 66 W/m² | - |
| 1777847079 | 25.56° C | 40% | 1018.3 hPa | 0 mm | - | 63 W/m² | - |
| 1777846777 | 26.11° C | 35% | 1018.4 hPa | 0 mm | - | 63 W/m² | - |
| 1777846475 | 26.11° C | 41% | 1018.5 hPa | 0 mm | - | 84 W/m² | - |
| 1777846171 | 26.11° C | 37% | 1018.7 hPa | 0 mm | - | 334 W/m² | - |
| 1777845867 | 26.67° C | 35% | 1018.7 hPa | 0 mm | - | 353 W/m² | - |
| 1777845565 | 26.67° C | 35% | 1018.6 hPa | 0 mm | - | 398 W/m² | - |
| 1777845262 | 26.67° C | 37% | 1018.7 hPa | 0 mm | - | 408 W/m² | - |
| 1777844959 | 26.67° C | 34% | 1018.9 hPa | 0 mm | - | 425 W/m² | - |
| 1777844657 | 26.11° C | 36% | 1019 hPa | 0 mm | - | 452 W/m² | - |
| 1777844354 | 26.67° C | 36% | 1018.9 hPa | 0 mm | - | 438 W/m² | - |
| 1777844052 | 27.22° C | 38% | 1019.1 hPa | 0 mm | - | 472 W/m² | - |
| 1777843748 | 27.22° C | 38% | 1019.2 hPa | 0 mm | - | 493 W/m² | - |
| 1777843446 | 26.67° C | 37% | 1019.3 hPa | 0 mm | - | 491 W/m² | - |
| 1777843143 | 26.67° C | 35% | 1019.3 hPa | 0 mm | - | 464 W/m² | - |
| 1777842840 | 27.22° C | 37% | 1019.4 hPa | 0 mm | - | 413 W/m² | - |
| 1777842535 | 26.67° C | 33% | 1019.7 hPa | 0 mm | - | 525 W/m² | - |
| 1777842233 | 26.67° C | 32% | 1019.6 hPa | 0 mm | - | 525 W/m² | - |
| 1777841927 | 26.67° C | 38% | 1019.5 hPa | 0 mm | - | 522 W/m² | - |
| 1777841624 | 26.67° C | 40% | 1019.7 hPa | 0 mm | - | 422 W/m² | - |
| 1777841320 | 26.11° C | 38% | 1020 hPa | 0 mm | - | 508 W/m² | - |
| 1777841018 | 26.67° C | 37% | 1020.2 hPa | 0 mm | - | 300 W/m² | - |
| 1777840715 | 27.22° C | 34% | 1020.2 hPa | 0 mm | - | 559 W/m² | - |
* Rain latest hour (hover to see other rain measurements)
** Current wind speed in m/s (hover to see current wind gust speed)